EW7119 Weather Reports


Display with metric or nautical units.
time (UTC)temp
F
wind
direction
speed
MPH
gust
MPH
rain 1hr
in
rain 24hr
in
rain mn
in
humidity
%
barometer
mb
20260905214513 72 148 0.0 11.0 0.00 0.00 0.00 38 1001.4
20260905213107 69 140 2.0 14.0 0.00 0.00 0.00 40 1001.6
20260905211611 70 109 1.0 14.0 0.00 0.00 0.00 38 1001.9
20260905210009 72 134 0.0 10.0 0.00 0.00 0.00 37 1001.9
20260905204555 73 142 0.0 0.0 0.00 0.00 0.00 35 1002.0
20260905203103 73 299 0.0 0.0 0.00 0.00 0.00 34 1002.1
20260905201611 73 320 0.0 0.0 0.00 0.00 0.00 33 1002.0
20260905200005 73 319 0.0 0.0 0.00 0.00 0.00 31 1002.0
20260905194517 74 317 0.0 0.0 0.00 0.00 0.00 30 1002.0
20260905193041 75 227 0.0 0.0 0.00 0.00 0.00 30 1002.2
20260905191535 73 305 0.0 1.0 0.00 0.00 0.00 32 1002.3
20260905190039 73 282 0.0 0.0 0.00 0.00 0.00 33 1002.4
20260905184554 74 277 0.0 0.0 0.00 0.00 0.00 32 1002.5
20260905183105 75 294 0.0 0.0 0.00 0.00 0.00 30 1002.7
20260905181516 74 154 0.0 0.0 0.00 0.00 0.00 31 1003.0
20260905180104 74 332 0.0 0.0 0.00 0.00 0.00 30 1003.3
20260905174601 74 292 0.0 0.0 0.00 0.00 0.00 32 1003.4
20260905173050 72 277 0.0 0.0 0.00 0.00 0.00 33 1003.5
20260905171551 71 242 0.0 0.0 0.00 0.00 0.00 34 1003.6
20260905170004 71 0.0 327.0 3.27 3.27 0.00 34 1003.7
20260905164519 70 265 0.0 0.0 0.00 0.00 0.00 38 1003.6
20260905163135 69 296 0.0 0.0 0.00 0.00 0.00 37 1003.6
20260905161550 68 26 0.0 0.0 0.00 0.00 0.00 39 1003.7
20260905160106 67 24 0.0 0.0 0.00 0.00 0.00 41 1003.7
20260905154554 65 39 0.0 0.0 0.00 0.00 0.00 44 1003.7
20260905153111 64 322 0.0 0.0 0.00 0.00 0.00 45 1003.7
20260905151610 62 351 0.0 0.0 0.00 0.00 0.00 47 1003.8
20260905150004 61 38 0.0 0.0 0.00 0.00 0.00 50 1003.9
20260905144521 61 38 0.0 0.0 0.00 0.00 0.00 48 1003.9
20260905143041 61 319 0.0 0.0 0.00 0.00 0.00 49 1003.9
20260905141532 61 318 0.0 0.0 0.00 0.00 0.00 50 1003.7
20260905140022 60 79 0.0 0.0 0.00 0.00 0.00 53 1003.7
20260905134548 58 59 0.0 0.0 0.00 0.00 0.00 54 1003.5
20260905133107 56 82 0.0 0.0 0.00 0.00 0.00 58 1003.6
20260905131612 56 82 0.0 0.0 0.00 0.00 0.00 59 1003.5
20260905130013 57 25 0.0 0.0 0.00 0.00 0.00 57 1003.5
20260905124517 57 75 0.0 4.0 0.00 0.00 0.00 59 1003.3
20260905123016 57 63 0.0 0.0 0.00 0.00 0.00 59 1003.1
20260905121550 56 88 0.0 0.0 0.00 0.00 0.00 61 1003.0
20260905120049 54 142 0.0 0.0 0.00 0.00 0.00 65 1003.0
20260905114555 54 141 0.0 0.0 0.00 0.00 0.00 66 1003.0
20260905113008 53 142 0.0 0.0 0.00 0.00 0.00 67 1003.0
20260905111601 53 142 0.0 0.0 0.00 0.00 0.00 66 1003.1
20260905110100 53 141 0.0 0.0 0.00 0.00 0.00 67 1003.0
20260905104506 53 142 0.0 0.0 0.00 0.00 0.00 67 1003.0
20260905103111 53 141 0.0 0.0 0.00 0.00 0.00 66 1002.9
20260905101508 54 141 0.0 0.0 0.00 0.00 0.00 65 1002.7
20260905100019 54 141 0.0 0.0 0.00 0.00 0.00 65 1002.7
20260905094531 54 141 0.0 0.0 0.00 0.00 0.00 64 1002.7
20260905093010 55 141 0.0 0.0 0.00 0.00 0.00 63 1002.6
20260905091502 55 141 0.0 0.0 0.00 0.00 0.00 63 1002.6
20260905090112 55 141 0.0 0.0 0.00 0.00 0.00 62 1002.6
20260905084620 56 141 0.0 0.0 0.00 0.00 0.00 60 1002.6
20260905083055 58 141 0.0 0.0 0.00 0.00 0.00 58 1002.8
20260905081552 58 141 0.0 0.0 0.00 0.00 0.00 57 1002.8
20260905080058 59 141 0.0 0.0 0.00 0.00 0.00 55 1002.7
20260905074604 59 141 0.0 0.0 0.00 0.00 0.00 53 1002.6
20260905073106 59 141 0.0 0.0 0.00 0.00 0.00 53 1002.6
20260905071547 60 141 0.0 0.0 0.00 0.00 0.00 52 1002.6
20260905070048 61 141 0.0 0.0 0.00 0.00 0.00 50 1002.5
20260905064537 60 141 0.0 0.0 0.00 0.00 0.00 51 1002.3
20260905063006 60 141 0.0 0.0 0.00 0.00 0.00 52 1002.5
20260905061531 60 141 0.0 0.0 0.00 0.00 0.00 53 1002.3
20260905060019 62 141 0.0 0.0 0.00 0.00 0.00 50 1002.2
20260905054551 63 169 0.0 5.0 0.00 0.00 0.00 49 1002.2
20260905053144 63 154 0.0 2.0 0.00 0.00 0.00 49 1002.2
20260905051520 63 162 0.0 6.0 0.00 0.00 0.00 49 1002.1
20260905050055 63 144 0.0 11.0 0.00 0.00 0.00 49 1002.2
20260905044607 63 138 0.0 11.0 0.00 0.00 0.00 50 1002.2
20260905043113 64 150 0.0 12.0 0.00 0.00 0.00 47 1002.4
20260905041531 64 151 1.0 10.0 0.00 0.00 0.00 46 1002.3
20260905040044 64 144 0.0 7.0 0.00 0.00 0.00 45 1002.4
20260905034552 64 157 0.0 8.0 0.00 0.00 0.00 45 1002.4
20260905033059 64 150 0.0 11.0 0.00 0.00 0.00 46 1002.4
20260905031552 64 138 0.0 11.0 0.00 0.00 0.00 45 1002.2
20260905030039 64 135 0.0 2.0 0.00 0.00 0.00 44 1002.3
20260905024525 64 141 0.0 1.0 0.00 0.00 0.00 44 1002.2
20260905023047 64 104 0.0 1.0 0.00 0.00 0.00 45 1002.0
20260905021553 64 155 0.0 6.0 0.00 0.00 0.00 45 1001.8
20260905020108 65 133 0.0 7.0 0.00 0.00 0.00 44 1001.6
20260905014559 66 123 0.0 9.0 0.00 0.00 0.00 43 1001.4
20260905013103 67 132 0.0 16.0 0.00 0.00 0.00 41 1001.4
20260905011617 68 132 2.0 11.0 0.00 0.00 0.00 38 1001.4
20260905010110 69 130 0.0 8.0 0.00 0.00 0.00 36 1001.3
20260905004606 70 143 1.0 11.0 0.00 0.00 0.00 34 1001.4
20260905003108 71 165 0.0 8.0 0.00 0.00 0.00 33 1001.5
20260905001610 72 161 0.0 1.0 0.00 0.00 0.00 31 1001.4
20260905000119 72 142 0.0 7.0 0.00 0.00 0.00 31 1001.5
20260904234612 72 157 1.0 10.0 0.00 0.00 0.00 31 1001.4
20260904233100 72 175 0.0 1.0 0.00 0.00 0.00 30 1001.4
20260904231556 73 168 0.0 0.0 0.00 0.00 0.00 30 1001.2
20260904230053 74 157 0.0 1.0 0.00 0.00 0.00 29 1001.2
20260904224609 74 144 0.0 2.0 0.00 0.00 0.00 29 1001.1
20260904223110 73 133 0.0 1.0 0.00 0.00 0.00 30 1001.2
20260904221506 73 140 0.0 0.0 0.00 0.00 0.00 29 1001.2
20260904220014 72 155 0.0 4.0 0.00 0.00 0.00 31 1001.4